Location: Unspecified
(40.9447°N, 78.9903°W)
Time: 04:13:26
(UTC-04:00)

Cosmos 1674 - Pass Details

Date: 28 July 2021
Orbit: 491 x 516 km, 82.5° (Epoch: 26 September)

Event Time Altitude Azimuth Distance (km) Brightness Sun altitude
Rises 03:47:14 0° 360° (N) 2,648 7.1 -21.4°
Reaches altitude 10° 03:49:30 10° 8° (N) 1,755 6.2 -21.1°
Maximum altitude 03:53:07 39° 78° (ENE) 794 4.0 -20.7°
Enters shadow 03:55:37 17° 140° (SE) 1,340 4.7 -20.4°
